Weather in Pancheve

Ukraine / Kirovohrad Region     48°44′33″N   31°51′33″E
temp.,
°C
wind,
m/s
gust,
m/s
humid.,
%
clouds,
%
prec.,
mm/h
press.,
hPa
HPBL,
m
9 may, sun
sun900:00+4nw512874 0.0 1018497
03:00+3nw512914 0.0 1019436
06:00+2wnw410940 0.0 1021300
09:00+8nw69635 0.0 10231092
12:00+12nw794895 0.0 10232204
15:00+11nnw684979 0.0 10242001
18:00+12nnw58515 0.1 10251755
21:00+7nw22704 0.1 102618
10 may, mon
mon1000:00+6nw22732 0.0 102711
03:00+5nnw12760 0.0 102810
06:00+5nnw11785 0.0 102810
09:00+11n22580 0.0 1028524
12:00+14n44445 0.0 10271767
15:00+15nne45404 0.0 10261787
18:00+15nne56465 0.0 10241650
21:00+8nne34700 0.0 102559
11 may, tue
tue1100:00+7n35750 0.0 102475
03:00+6nnw49805 0.0 1023170
06:00+6nnw513735 0.0 1021329
09:00+11n7106653 0.0 1020541
12:00+13n6869100 0.0 1018594
15:00+17nne796499 0.0 1017996
18:00+12ene51184100 0.5 1017514
21:00+9ene410800 0.6 1017269
12 may, wed
wed1200:00+6nne35885 0.0 101781
03:00+5ne4109544 0.0 1015311
06:00+7ne5988100 0.1 1015628
09:00+9ene577599 0.3 10141058
12:00+8ne357668 0.3 1014741
15:00+10ene217086 1.1 1013731
18:00+12w126320 0.4 1012834
21:00+8e11808 0.6 101311
13 may, thu
thu1300:00+6sse34824 0.0 101358
03:00+5sse338329 0.0 101339
06:00+7ese378788 0.0 1013142
09:00+14se577296 0.0 1012606
12:00+17se6761100 0.1 10111186
15:00+20se6952100 0.1 10102060
18:00+20sse59595 0.0 10081623
21:00+15sse4878100 0.1 1008152